Regional Weather Roundup
Issued by NWS State College, PA

Home | Current Version | Previous Version | Graphics & Text | Print | Product List | Glossary Off
Versions: 1 2 3 4 5 6 7 8 9 10 11 12 13 14 15 16 17 18 19 20 21 22 23 24 25 26 27 28 29 30 31 32 33 34 35 36 37 38 39 40 41 42 43 44 45 46 47 48 49 50

000
ASUS41 KCTP 252103
RWRCTP

REGIONAL WEATHER ROUNDUP
NATIONAL WEATHER SERVICE STATE COLLEGE PA
500 PM EDT SAT APR 25 2015

Note: "fair" indicates few or no clouds below 12,000 feet with no
significant weather and/or obstructions to visibility.

* = STATION THAT DOES NOT REPORT PRECIPITATION /E.G. RAIN...SNOW...ETC/
    THUNDER OR FOG.

PAZ002>004-007>009-013>016-020>023-029>032-252200-
WESTERN PENNSYLVANIA

CITY           SKY/WX    TMP DP  RH WIND       PRES   REMARKS
ERIE           PTSUNNY   46  23  40 NE16G26   29.78F
MEADVILLE      MOSUNNY   52  20  28 NE7       29.73F
FRANKLIN*      MOSUNNY   52  19  28 N8        29.73F
NEW CASTLE     FAIR      54  17  23 N8        29.73F
BEAVER COUNTY  SUNNY     52  18  25 SE3       29.71F
BUTLER*        PTSUNNY   52  18  25 E8        29.73F
PITTSBURGH INT PTSUNNY   52  27  38 E6        29.70F
PITTSBURGH     PTSUNNY   53  24  32 CALM      29.69F
INDIANA*       SUNNY     55  16  21 W5        29.74S
LATROBE        PTSUNNY   54  28  37 N6        29.71F
WASHINGTON CO* CLOUDY    52  30  43 NE8       29.72S
$$

PAZ004>006-010>012-017>019-024>028-033>037-041-042-045-046-049>053-252200-
CENTRAL PENNSYLVANIA

CITY           SKY/WX    TMP DP  RH WIND       PRES   REMARKS
BRADFORD       MOSUNNY   50  20  30 E7        29.71F
DUBOIS         MOSUNNY   55  17  22 NE8       29.70F
CLEARFIELD     MOSUNNY   53  18  25 VRB3      29.72F
JOHNSTOWN      MOSUNNY   52  27  38 VRB5      29.68F
ALTOONA        PTSUNNY   53  19  26 CALM      29.72F
STATE COLLEGE  SUNNY     52  23  32 NE6       29.73F
WILLIAMSPORT   PTSUNNY   56  23  27 W6        29.72F
SELINSGROVE    MOSUNNY   56  28  34 N7        29.74F
FT INDIANTOWN  MOSUNNY   57  21  25 NE6       29.73F
CAPITAL CITY   MOSUNNY   54  20  26 CALM      29.75F
HARRISBURG     PTSUNNY   55  22  27 CALM      29.74F
YORK           PTSUNNY   55  23  28 VRB6      29.75F
$$

PAZ038>040-043-044-047-048-054-055-060>062-067>071-252200-
EASTERN PENNSYLVANIA

CITY           SKY/WX    TMP DP  RH WIND       PRES   REMARKS
SCRANTON       MOSUNNY   55  24  30 NW6       29.72F
MOUNT POCONO   MOSUNNY   50  21  32 NW10      29.70F
ALLENTOWN      MOSUNNY   58  25  28 VRB5      29.71F
QUAKERTOWN*    PTCLDY    55  25  30 W8        29.74F
READING        MOSUNNY   57  26  30 W9        29.73F
LANCASTER      MOSUNNY   54  27  35 W8G16     29.75F
COATESVILLE    PTCLDY    52  25  35 W7        29.76F
POTTSTOWN      MOSUNNY   56  25  30 NW3       29.75F
BLUE BELL      MOSUNNY   57  27  30 NW7       29.74F
DOYLESTOWN     MOSUNNY   56  23  27 MISG      29.72F
WILLOW GROVE   NOT AVBL
NORTH PHILA    MOSUNNY   58  22  24 NW9       29.76F
PHILADELPHIA   PTSUNNY   58  24  27 SW13      29.76F
$$


USA.gov is the U.S. government's official web portal to all federal, state and local government web resources and services.